Location: Dziadowski
(50.3833°N, 20.0333°E)
Time: 21:37:24
(UTC+00:00)

SKYMED 2 - Pass Details

Date: 18 January 2026
Orbit: 622 x 624 km, 97.9° (Epoch: 17 February)

Event Time Altitude Azimuth Distance (km) Brightness Sun altitude
Rises 03:46:15 0° 167° (SSE) 2,894 7.2 -25.8°
Reaches altitude 10° 03:48:26 10° 169° (SSE) 1,992 6.3 -25.4°
Enters shadow 03:51:28 45° 176° (S) 859 4.2 -24.9°
